Regional Weather Roundup
Issued by NWS Grand Forks, ND

Current Version | Previous Version | Text Only | Print | Product List | Glossary On
Versions: 1 2 3 4 5 6 7 8 9 10 11 12 13 14 15 16 17 18 19 20 21 22 23 24 25 26 27 28 29 30 31 32 33 34 35 36 37 38 39 40 41 42 43 44 45 46 47 48 49 50
000
ASUS43 KFGF 262010
RWRFGF
PRAIRIE TO PINES  WEATHER ROUNDUP
NATIONAL WEATHER SERVICE EASTERN NORTH DAKOTA/GRAND FORKS ND
300 PM CDT SAT MAY 26 2018

 **SATELLITE DATA USED TO AUGMENT SKY COVER AT AUTOMATED STATIONS**
 *****  WEATHER ACROSS EASTERN NORTH DAKOTA  *****

CITY           SKY/WX    TMP DP  RH WIND       PRES   REMARKS
GRAND FORKS    FAIR      89  54  30 NW13G24   29.65F
GRAND FRKS AFB FAIR      88  52  28 NW12G26   29.67F
GRAND FRKS NWS   N/A     90  55  30 NW12      29.64S
DEVILS LAKE    FAIR      85  53  33 NW13G25   29.72F
FARGO          FAIR      92  49  22 NW21G32   29.67F
WAHPETON ARPT  FAIR      91  37  15 NW12G25   29.70S
$$

 ***** WEATHER ACROSS CENTRAL AND WESTERN NORTH DAKOTA  *****

CITY           SKY/WX    TMP DP  RH WIND       PRES   REMARKS
BISMARCK       FAIR      91  51  25 CALM      29.74F
MINOT          FAIR      91  44  19 W8        29.71F
JAMESTOWN      FAIR      88  52  29 W7G21     29.72F
MINOT AFB      FAIR      90  46  21 N3        29.69F
GARRISON         N/A     90  47  22 SW14      29.72F
WILLISTON      FAIR      88  44  21 E5        29.73S
DICKINSON      FAIR      89  46  22 VRB3      29.74F
HETTINGER      FAIR      88  54  31 SE10      29.77F
$$

 *****  OTHER AIRPORT OBSERVATIONS IN OUR AREA  *****

CITY           SKY/WX    TMP DP  RH WIND       PRES   REMARKS
WALHALLA       FAIR      82  59  44 NW12G20   29.68S
GRAFTON AIRPOR FAIR      86  57  37 NW13G21   29.68F
VALLEY CITY AR FAIR      90  54  29 W12G18    29.74S
CANDO          FAIR      88  52  29 W12G21    29.73S
CAVALIER APRT    N/A     84  57  39 NW13G20   29.67S
GWINNER          N/A     91  48  22 NW13G25   29.72F
SHEYENNE NWR     N/A     94  46  18 NW14      29.95S HX  90
ROLLA          FAIR      84  46  26 W18G25    29.74R
 ***** THE ABOVE OBSERVATIONS ARE NON NWS ARE NOT QUALITY
       CONTROLLED AND MAY MIS-REPORT RAIN FOR SNOW...
$$

  *****  WEATHER ACROSS NORTHERN MINNESOTA  *****

CITY           SKY/WX    TMP DP  RH WIND       PRES   REMARKS
FLAG ISLAND    PTSUNNY   70  63  78 CALM      29.66R
WARROAD        FAIR      77  63  61 NW7       29.68R
ROSEAU         FAIR      81  63  54 NW10G17   29.67S
HALLOCK        FAIR      82  57  42 NW9G18    29.66S
THF RVR FALLS  FAIR      83  56  39 NW14      29.69F
BAUDETTE         N/A    N/A N/A N/A MISG      29.67R
WASKISH        FAIR      79  63  57 CALM      29.68S
CROOKSTON      FAIR      88  52  29 W22G28    29.67F
STEPHEN NDAWN    N/A     86  55  35 NW9         N/A
GREENBUSH NDAW   N/A     81  59  47 W15         N/A
$$
  *****  WEATHER ACROSS CENTRAL AND WEST MINNESOTA  *****

CITY           SKY/WX    TMP DP  RH WIND       PRES   REMARKS
FOSSTON        FAIR      84  50  30 W13G23    29.71S
BEMIDJI        FAIR      83  56  39 W12G24    29.70S
PARK RAPIDS    FAIR      90  49  24 W20G31    29.70S
ELBOW LAKE     FAIR      93  46  19 NW15G21   29.72S
WADENA         FAIR      88  54  31 W16       29.71F
DETROIT LAKES  FAIR      90  45  20 W13G23    29.73S
MOORHEAD       FAIR      93  43  17 NW21G29   29.68F
FERGUS FALLS   FAIR      90  48  24 W15G21    29.65S
MORRIS MN      FAIR      97  46  17 NW14      29.71F HX  93
STAPLES        FAIR      90  45  20 W14G25    29.71S
$$
  *****  WEATHER ELSEWHERE ACROSS MINNESOTA  *****

CITY           SKY/WX    TMP DP  RH WIND       PRES   REMARKS
DULUTH         FAIR      92  48  22 W22G33    29.66S
INTRNTL FALLS  FAIR      78  58  49 W15G21    29.66R
ELY            FAIR      79  55  44 NE5       29.67R
CLOQUET        FAIR      90  39  17 W18G26    29.67S
WHEATON        FAIR      91  45  19 W14       29.72F
BRAINERD       FAIR      91  45  20 W17G28    29.70S
HIBBING        FAIR      85  50  29 W15G28    29.66S
ALEXANDRIA     FAIR      94  49  21 NW14G20   29.74F HX  90
SAINT CLOUD    FAIR      94  47  20 N10G20    29.70S HX  90
MINNEAPOLIS    FAIR      93  55  27 W13       29.70S HX  91
$$

  *****  WEATHER ACROSS SOUTH DAKOTA  *****

CITY           SKY/WX    TMP DP  RH WIND       PRES   REMARKS
SIOUX FALLS    FAIR      91  61  36 NW9       29.76F HX  91
BROOKINGS      FAIR      91  56  30 NW14      29.77F
WATERTOWN      FAIR      87  54  32 NW12      29.77F
HURON          FAIR      91  60  35 SW8       29.74F HX  90
SISSETON         N/A     92  50  23 W12       29.71F
ABERDEEN       FAIR      96  53  23 W8        29.73F HX  93
MITCHELL       FAIR      94  60  32 CALM      29.75F HX  94
PIERRE         FAIR      89  65  44 SE9       29.73F HX  91
MOBRIDGE       FAIR      89  58  34 SE5       29.74F
RAPID CITY     FAIR      86  65  49 S15G22    29.75F
$$

  *****  SOME WEATHER IN NEARBY STATES *****

CITY           SKY/WX    TMP DP  RH WIND       PRES   REMARKS
GLASGOW MT     FAIR      89  49  25 SE13      29.70F
GREAT FALLS MT FAIR      78  48  34 W9G21     29.83R
CHEYENNE WY    FAIR      83  35  18 SE16      29.95F
SCOTTSBLUFF NE FAIR      92  58  31 SE12G21   29.80F HX  91
OMAHA NE       FAIR      99  54  22 W7        29.75S HX  97
DES MOINES IA  FAIR      95  62  33 SW7       29.74F HX  96
DAVENPORT IA   FAIR      88  67  49 VRB3      29.78F HX  91
CHICAGO IL     FAIR      88  61  40 W8        29.75F
EAU CLAIRE WI  FAIR      92  60  34 W12       29.69F HX  91
LA CROSSE WI   FAIR      90  67  46 S10       29.72F HX  93
$$

  *****  SOME NATIONAL WEATHER *****

CITY           SKY/WX    TMP DP  RH WIND       PRES   REMARKS
LA GUARDIA NY  PTSUNNY   90  62  39 SW10      29.76F HX  90
RALEIGH NC     PTSUNNY   83  72  69 S9        29.91F
ATLANTA GA     PTSUNNY   83  66  56 S6        29.90F
NEW ORLEANS LA PTSUNNY   79  71  76 SW6       29.85F
OKLAHOMA CITY  PTSUNNY   89  68  49 VRB6      29.82F HX  93
ALBUQUERQUE NM CLOUDY    85  17   8 SW9       30.00F
SALT LAKE CITY MOSUNNY   83  23  11 NW9G20    29.76F
LOS ANGELES CA FAIR      67  52  58 SW14      30.01F
BOISE ID       PTSUNNY   70  51  51 NW20G30   29.85F
SEATTLE WA     PTSUNNY   64  45  49 W8        30.18R
$$

*** WEATHER ACROSS MANITOBA...SASKATCHEWAN AND ONTARIO ***
                ***ONTARIO***

CITY           SKY/WX    TMP DP  RH WIND       PRES   REMARKS
GERALDTON      CLOUDY    48  45  87 E13       29.78S
THUNDER BAY    TSTM      57  55  94 E6        29.73R
SIOUX LOOKOUT  LGT RAIN  61  59  94 E6        29.69R
TORONTO        PTSUNNY   81  59  47 S12G17    29.77F
BIG TROUT LK   CLOUDY    46  36  66 SE12      29.80F
PICKLE LAKE    LGT RAIN  45  43  93 E9        29.75S
DRYDEN         PTSUNNY   72  59  64 NW5       29.66R
KENORA         MOSUNNY   72  59  64 NW10      29.69R
$$
                *** MANITOBA***

CITY           SKY/WX    TMP DP  RH WIND       PRES   REMARKS
BRANDON        MOSUNNY   79  57  47 NW14G21   29.71S
DAUPHIN        SUNNY     72  61  68 VRB6      29.70S
ISLAND LAKE    CLOUDY    52  48  87 SE10      29.70S
PILOT MOUND      N/A     81  54  39 NW10G21     N/A
THE PAS        CLOUDY    55  52  88 VRB2      29.70S
THOMPSON       CLOUDY    52  41  66 VRB3      29.69F
WINNIPEG       MOSUNNY   75  59  57 N3G17     29.68F
LYNN LAKE      CLOUDY    54  46  76 SW9       29.66S
CHURCHILL      PTSUNNY   46  37  71 S13       29.73
GILLAM         LGT RAIN  50  39  66 SE6       29.74S
$$
                ***SASKATCHEWAN***

CITY           SKY/WX    TMP DP  RH WIND       PRES   REMARKS
ESTEVAN        CLOUDY    88  46  23 SW10      29.72F
KINDERSLEY     MOSUNNY   81  52  36 NW12G23   29.64S
LLOYDMINSTER   MOSUNNY   70  46  43 N18G24    29.73S
PRINCE ALBERT  PTSUNNY   72  59  64 E7        29.70S
REGINA         CLOUDY    86  46  25 SW9       29.67F
YORKTON        SUNNY     77  57  50 VRB3      29.70F
N. BATTLEFORD  LGT RAIN  66  61  82 NE7       29.68R
LA RONGE       CLOUDY    61  55  82 SE13      29.66F
SASKATOON      TSTM      68  61  77 NE12      29.64F
SWIFT CURRENT  SUNNY     82  46  28 W16G22    29.68S
$$
NOTE: THESE ARE AUTOMATED STATIONS WITH LIMITED QUALITY CONTROL
      "FAIR" INDICATES FEW OR NO CLOUDS BELOW 12,000 FEET WITH NO
      SIGNIFICANT WEATHER AND/OR OBSTRUCTIONS TO VISIBILITY.
      SKY/WX - SKY CONDITION AND SIGNIFICANT WEATHER.
      TMP - AIR TEMPERATURE.    DP   - DEWPOINT TEMPERATURE.
      RH  - RELATIVE HUMIDITY.  PRES - PRESSURE.
      HX  - HEAT INDEX.         WCI  - WIND CHILL INDEX.
$




USA.gov is the U.S. government's official web portal to all federal, state and local government web resources and services.